Tracking 19796 objects as of 19-Jul-2019
HD Live streaming from Space Station
objects crossing your sky now

NOAA 3

Track NOAA 3 now!
10-day predictions
NOAA 3 is classified as:


NORAD ID: 6920
Int'l Code: 1973-086A
Perigee: 1,506.9 km
Apogee: 1,517.7 km
Inclination: 102.1 °
Period: 116.1 minutes
Semi major axis: 7883 km
RCS: 3.3381 m2 (large)
Launch date: November 6, 1973
Source: United States (US)
Launch site: AIR FORCE WESTERN TEST RANGE (AFWTR)
aabbcc
Your satellite tracking list
Your tracking list is empty




NASA's NSSDC Master Catalog

Two Line Element Set (TLE):
1  6920U 73086A   19199.57700272 -.00000042  00000-0  21256-4 0  9997
2  6920 102.0517 168.4136 0006903  96.3189  35.4114 12.40341351 68958
Source of the keplerian elements: AFSPC